Simultaneous Nadir Overpasses (SNOs) Predictions

Prediction of SNOs between NOAA-19 and NPP Satellite Orbit:

Table of predicted SNOs for the next 14.0 days since TLE Epoch: 8/3/2024
Index Date (NOAA-19) Time (NOAA-19) Lat,Lon (NOAA-19) SZA (NOAA-19 ) Date (NPP) Time (NPP) Lat,Lon (NPP) SZA (NPP ) Distance(km) Time Diff (sec)
1 08/06/2024 05:48:05 72.17, 82.77 55.95 08/06/2024 05:49:11 72.23, 85.47 55.82 91.84 66
2 08/06/2024 06:38:52 -72.63,-109.00 123.66 08/06/2024 06:40:04 -72.71,-108.16 123.65 28.91 72
3 08/06/2024 07:29:49 72.87, 58.75 56.56 08/06/2024 07:30:54 72.90, 58.74 56.57 3.67 65
4 08/06/2024 08:20:44 -72.92,-133.86 123.39 08/06/2024 08:21:38 -72.91,-133.97 123.41 3.54 54
5 08/06/2024 09:11:46 72.90, 33.34 56.61 08/06/2024 09:12:24 72.90, 33.36 56.59 0.70 38
6 08/06/2024 10:02:42 -72.91,-159.37 123.38 08/06/2024 10:03:08 -72.92,-159.35 123.38 1.00 26
7 08/06/2024 10:53:43 72.94, 7.94 56.66 08/06/2024 10:53:55 72.95, 7.88 56.67 2.56 12
8 08/06/2024 11:44:39 -72.95, 175.22 123.33 08/06/2024 11:44:39 -72.97, 175.16 123.31 2.91 0
9 08/06/2024 12:35:40 72.98, -17.46 56.71 08/06/2024 12:35:25 72.96, -17.51 56.70 3.08 15
10 08/06/2024 13:26:36 -72.99, 149.82 123.27 08/06/2024 13:26:09 -72.97, 149.78 123.28 2.35 27
11 08/06/2024 14:17:38 72.97, -42.97 56.72 08/06/2024 14:16:55 72.96, -42.89 56.72 2.99 43
12 08/06/2024 15:08:34 -72.98, 124.31 123.26 08/06/2024 15:07:39 -72.97, 124.40 123.26 2.94 55
13 08/06/2024 15:59:35 73.01, -68.37 56.78 08/06/2024 15:58:26 73.01, -68.38 56.80 0.53 69
14 08/06/2024 16:50:27 -73.21, 99.36 123.04 08/06/2024 16:49:14 -73.23, 98.48 122.96 28.46 73



Historial Predications of SNOs between NOAA-19 and NPP
